Location: Caltech
(34.1382°N, 118.1253°W)
Time: 05:02:42
(UTC-07:00)

KITSAT 1 - Visible Passes

Search period start: 28 May 2015 00:00
Search period end: 07 June 2015 00:00
Orbit: 1307 x 1323 km, 66.1° (Epoch: 27 May)

Date Brightness Start Highest point End Pass type
(mag) Time Alt. Az. Time Alt. Az. Time Alt. Az.
28 May 10.2 01:39:12 10° NNW 01:47:23 79° ENE 01:48:32 68° SE visible
28 May 11.6 03:36:50 10° WNW 03:40:26 17° W 03:40:26 17° W visible
29 May 11.8 00:00:54 10° N 00:07:15 25° NE 00:11:32 17° E visible
29 May 10.1 01:55:20 10° NNW 02:03:26 71° WSW 02:03:27 71° WSW visible
30 May 11.3 00:16:30 10° NNW 00:23:47 36° NE 00:26:33 29° E visible
30 May 10.6 02:11:41 10° NW 02:18:29 45° W 02:18:29 45° W visible
30 May 12.4 22:40:06 10° NNE 22:42:30 12° NNE 22:45:21 10° NE visible
31 May 10.7 00:32:16 10° NNW 00:40:10 53° ENE 00:41:39 48° E visible
31 May 11.2 02:28:23 10° NW 02:33:36 28° W 02:33:36 28° W visible
31 May 12.2 22:54:39 10° N 22:59:27 17° NE 23:04:36 10° E visible
01 Jun 10.1 00:48:13 10° NNW 00:56:22 77° ENE 00:56:50 75° E visible
01 Jun 11.8 02:45:41 10° WNW 02:48:46 17° W 02:48:46 17° W visible
01 Jun 11.8 23:09:56 10° N 23:16:12 24° NE 23:20:08 18° E visible
02 Jun 10.2 01:04:19 10° NNW 01:12:04 72° W 01:12:04 72° W visible
02 Jun 11.2 23:25:31 10° NNW 23:32:46 35° NE 23:35:25 29° E visible
03 Jun 10.7 01:20:40 10° NW 01:27:22 46° W 01:27:22 46° W visible
03 Jun 12.3 21:49:19 10° NNE 21:51:26 11° NNE 21:54:00 10° NE visible
03 Jun 10.6 23:41:18 10° NNW 23:49:09 51° ENE 23:50:46 46° E visible
04 Jun 11.3 01:37:19 10° NW 01:42:43 29° W 01:42:43 29° W visible
04 Jun 12.1 22:03:44 10° N 22:08:23 17° NE 22:13:24 10° ENE visible
04 Jun 10.1 23:57:13 10° NNW 00:05:22 75° ENE 00:06:09 70° ESE visible
05 Jun 11.8 01:54:34 10° WNW 01:58:06 18° W 01:58:06 18° W visible
05 Jun 11.7 22:18:59 10° N 22:25:09 24° NE 22:29:38 16° E visible
06 Jun 10.1 00:13:19 10° NNW 00:21:26 75° WSW 00:21:35 75° SW visible
06 Jun 11.2 22:34:33 10° N 22:41:44 34° NE 22:45:06 26° E visible
